Showing default

GSAT 15, 41028

Orbit data source: Space-Track

GSAT 15, 41028 is a payload satellite owned by ISRO (IN) in GEO that was launched on Tue, 10 Nov 2015 UTC via an ARIANE 5ECA launch vehicle from the French Guiana (FRGUI). Payload-class satellites include a variety of spacecraft equipped with specific instruments for various scientific and technological missions. These include communications satellites like Starlink; space stations such as the ISS; scientific satellites like the Hubble; Earth observation satellites from companies like Planet Labs, Umbra, and HawkEye 360; GPS; miniature CubeSats for education and research; and military/defense satellites.

Not visible in the next 10 days
Identifier
41028, 2015-065A
Orbit
GEO
Country
Flag of ININ / IND
Related business
Manufacturer
ISRO SAC/Banga
Mission
Operational Civil Communications
Bus & Motor
I3K, ISRO LAM
Mass
3,165 kg wet, ~1,200 kg dry
Launch date (UTC)
2015-11-10 (10 years ago)
Launch vehicle
ARIANE 5ECA
Launch site
French Guiana (FRGUI)
Object type
Payload
Rocket body
Debris
Shape & HBR
Box + 2 Pan, 7.8 m
Radar Cross Section
15.451 m², Large (>1 m²)

Expand to show TLE details & history
Last TLE update: 5 hours ago

TLE from 5 hours ago
0 GSAT 15
1 41028U 15065A   26071.59307590 -.00000257  00000-0  00000-0 0  9991
2 41028   0.0703 269.5971 0001523 123.3624  84.2799  1.00272510 37836
Epoch: 2026-03-12T14:14Z
TLE epoch observation values (Epoch: 2026-03-12T14:14:01.757Z)
Latitude
-0.04452°
Longitude
93.52755°
Altitude
35,785.279 km
Speed
3.075 km/s
True Right ascension
07h 49m 06s
True Declination
0° 02' 40"
Sunlit
Object was in daylight at epoch
Visualization orbit readout
Latitude
Unknown
Longitude
Unknown
Altitude
Unknown
Speed
Unknown
Apparent Right ascension
Unknown
Apparent Declination
Unknown
Sunlit
N/A
Visualization observer readout
Local Sidereal Time
00:00:23
Azimuth
Unknown
Elevation
Unknown
Doppler factor
Unknown
Orbital elements
Apogee altitude
35,793.884 km
Perigee altitude
35,781.04 km
Semi-major axis
42,165.599 km
Eccentricity
0.00015
Inclination
0.0703°
RAAN
269.5971°
Arg. of periapsis
123.3624°
True anomaly
84.29727°
Mean anomaly
84.2799°
Eccentric anomaly
84.28858°
Mean motion
0.25067 °/min
Orbital period
1,436.14 mins
BSTAR
0
Loading maneuver chart data...
Computing Atmospheric mass density...
Loading historical data...
Loading historical data...
Loading historical data...
Loading historical data...
Loading historical data...
Loading historical data...
Loading historical data...
Other satellites on launch #65 in the year 2015 (2015-11-10 UTC)

Documentation

Showing up to 5 results
|